CEB4N RPLL-RPVM

Flight info

Callsign CEB4N
Flight time N/A
Altitude 37000
Route IPATA2R IPATA W25 BATAY BATAY3P
Aircraft A339/H-SADE1E2E3GHIJ3J5M1P2RWXY/LB2D1

Departure

Time 2026-05-05 14:11
Airport Ninoy Aquino International Airport (RPLL)

Arrival

Time N/A
Airport Mactan Cebu International Airport (RPVM)
Time Latitude Longitude Altitude Speed Heading
2026-05-05 13:45 14.51801 121.01366 90 ft 0 kts 44°
2026-05-05 13:48 14.51791 121.01355 90 ft 2 kts 44°
2026-05-05 13:49 14.51780 121.01344 90 ft 2 kts 44°
2026-05-05 13:49 14.51770 121.01334 90 ft 2 kts 44°
2026-05-05 13:49 14.51759 121.01323 90 ft 2 kts 44°
2026-05-05 13:49 14.51748 121.01311 90 ft 2 kts 68°
2026-05-05 13:50 14.51746 121.01296 90 ft 2 kts 101°
2026-05-05 13:50 14.51752 121.01282 90 ft 2 kts 132°
2026-05-05 13:50 14.51763 121.01272 90 ft 2 kts 139°
2026-05-05 13:50 14.51773 121.01262 90 ft 2 kts 134°
2026-05-05 13:51 14.51784 121.01251 90 ft 2 kts 134°
2026-05-05 13:51 14.51795 121.01240 90 ft 2 kts 135°
2026-05-05 13:51 14.51806 121.01228 90 ft 2 kts 135°
2026-05-05 13:51 14.51816 121.01218 90 ft 2 kts 135°
2026-05-05 13:52 14.51827 121.01206 90 ft 2 kts 135°
2026-05-05 13:52 14.51831 121.01202 90 ft 0 kts 135°
2026-05-05 13:56 14.51826 121.01207 90 ft 3 kts 135°
2026-05-05 13:56 14.51780 121.01254 90 ft 14 kts 135°
2026-05-05 13:56 14.51687 121.01351 90 ft 22 kts 135°
2026-05-05 13:56 14.51575 121.01467 90 ft 22 kts 135°
2026-05-05 13:57 14.51463 121.01582 90 ft 21 kts 135°
2026-05-05 13:57 14.51359 121.01688 90 ft 21 kts 135°
2026-05-05 13:57 14.51254 121.01799 90 ft 20 kts 135°
2026-05-05 13:57 14.51153 121.01904 90 ft 20 kts 135°
2026-05-05 13:58 14.51112 121.01945 90 ft 20 kts 136°
2026-05-05 14:00 14.51065 121.01981 90 ft 9 kts 169°
2026-05-05 14:00 14.51013 121.01939 90 ft 13 kts 241°
2026-05-05 14:00 14.50945 121.01814 90 ft 23 kts 240°
2026-05-05 14:00 14.50862 121.01667 90 ft 23 kts 240°
2026-05-05 14:01 14.50782 121.01524 90 ft 22 kts 239°
2026-05-05 14:01 14.50704 121.01382 90 ft 22 kts 240°
2026-05-05 14:01 14.50625 121.01241 90 ft 22 kts 240°
2026-05-05 14:01 14.50549 121.01102 90 ft 22 kts 240°
2026-05-05 14:02 14.50474 121.00967 90 ft 21 kts 240°
2026-05-05 14:02 14.50398 121.00831 90 ft 21 kts 239°
2026-05-05 14:02 14.50323 121.00695 90 ft 21 kts 240°
2026-05-05 14:02 14.50248 121.00562 90 ft 21 kts 240°
2026-05-05 14:03 14.50174 121.00428 90 ft 21 kts 240°
2026-05-05 14:03 14.50100 121.00296 90 ft 21 kts 240°
2026-05-05 14:03 14.50027 121.00163 90 ft 21 kts 240°
2026-05-05 14:03 14.49990 121.00096 90 ft 21 kts 240°
2026-05-05 14:04 14.49954 121.00034 90 ft 21 kts 238°
2026-05-05 14:05 14.49953 121.00030 90 ft 21 kts 238°
2026-05-05 14:06 14.49925 120.99985 90 ft 16 kts 232°
2026-05-05 14:07 14.49889 120.99966 90 ft 9 kts 178°
2026-05-05 14:09 14.49838 120.99987 91 ft 10 kts 152°
2026-05-05 14:10 14.49804 121.00045 91 ft 10 kts 77°
2026-05-05 14:10 14.49836 121.00107 90 ft 0 kts 60°
2026-05-05 14:10 14.49836 121.00108 91 ft 1 kts 60°
2026-05-05 14:11 14.49913 121.00247 90 ft 56 kts 60°
2026-05-05 14:11 14.50231 121.00814 90 ft 123 kts 61°
2026-05-05 14:11 14.50747 121.01733 176 ft 167 kts 62°
2026-05-05 14:11 14.51319 121.02768 812 ft 166 kts 61°
2026-05-05 14:12 14.51879 121.03780 1558 ft 163 kts 62°
2026-05-05 14:12 14.52436 121.04791 2136 ft 164 kts 61°
2026-05-05 14:12 14.52961 121.05741 2410 ft 178 kts 61°
2026-05-05 14:12 14.53672 121.07026 2750 ft 197 kts 61°
2026-05-05 14:13 14.54381 121.08303 3050 ft 214 kts 61°
2026-05-05 14:13 14.55157 121.09703 3378 ft 233 kts 60°
2026-05-05 14:13 14.55986 121.11198 3733 ft 251 kts 60°
2026-05-05 14:13 14.56828 121.12858 4210 ft 266 kts 68°
2026-05-05 14:14 14.57356 121.14692 4981 ft 269 kts 79°
2026-05-05 14:14 14.57615 121.16590 5789 ft 270 kts 82°
2026-05-05 14:14 14.57830 121.18532 6567 ft 273 kts 83°
2026-05-05 14:14 14.58042 121.20476 7330 ft 276 kts 83°
2026-05-05 14:15 14.58262 121.22442 8095 ft 278 kts 83°
2026-05-05 14:15 14.58424 121.24435 8841 ft 281 kts 92°
2026-05-05 14:15 14.57907 121.26350 9568 ft 285 kts 117°
2026-05-05 14:15 14.56624 121.27910 10303 ft 290 kts 139°
2026-05-05 14:16 14.54988 121.29170 10753 ft 304 kts 142°
2026-05-05 14:16 14.53206 121.30508 11215 ft 316 kts 142°
2026-05-05 14:16 14.51415 121.31857 11884 ft 320 kts 142°
2026-05-05 14:16 14.49617 121.33218 12557 ft 323 kts 142°
2026-05-05 14:17 14.47775 121.34622 13214 ft 327 kts 141°
2026-05-05 14:17 14.45940 121.36023 13852 ft 330 kts 142°
2026-05-05 14:17 14.44075 121.37450 14486 ft 334 kts 142°
2026-05-05 14:17 14.42199 121.38887 15107 ft 337 kts 142°
2026-05-05 14:18 14.40260 121.40373 15721 ft 341 kts 142°
2026-05-05 14:18 14.38350 121.41837 16316 ft 344 kts 142°
2026-05-05 14:18 14.36431 121.43308 16887 ft 347 kts 142°
2026-05-05 14:18 14.34479 121.44804 17470 ft 350 kts 142°
2026-05-05 14:19 14.32503 121.46316 18063 ft 353 kts 142°
2026-05-05 14:19 14.30521 121.47832 18645 ft 356 kts 142°
2026-05-05 14:19 14.28506 121.49373 19236 ft 359 kts 142°
2026-05-05 14:19 14.26518 121.50892 19793 ft 362 kts 142°
2026-05-05 14:20 14.24457 121.52461 20363 ft 364 kts 143°
2026-05-05 14:20 14.22432 121.54002 20902 ft 367 kts 142°
2026-05-05 14:20 14.20340 121.55596 21455 ft 369 kts 143°
2026-05-05 14:20 14.18282 121.57165 21971 ft 372 kts 143°
2026-05-05 14:21 14.16187 121.58762 22506 ft 374 kts 143°
2026-05-05 14:21 14.14086 121.60363 23012 ft 377 kts 143°
2026-05-05 14:21 14.11959 121.61982 23504 ft 380 kts 143°
2026-05-05 14:21 14.09823 121.63607 23976 ft 384 kts 143°
2026-05-05 14:22 14.07658 121.65255 24463 ft 387 kts 143°
2026-05-05 14:22 14.05465 121.66926 24931 ft 391 kts 143°
2026-05-05 14:22 14.03242 121.68621 25397 ft 394 kts 143°
2026-05-05 14:22 14.01023 121.70315 25861 ft 397 kts 143°
2026-05-05 14:23 13.98789 121.72018 26316 ft 400 kts 144°
2026-05-05 14:23 13.96532 121.73740 26770 ft 403 kts 144°
2026-05-05 14:23 13.94262 121.75472 27217 ft 406 kts 144°
2026-05-05 14:23 13.91980 121.77213 27636 ft 409 kts 144°
2026-05-05 14:24 13.89666 121.78978 28066 ft 411 kts 144°
2026-05-05 14:24 13.87353 121.80739 28490 ft 414 kts 144°
2026-05-05 14:24 13.85025 121.82503 28902 ft 417 kts 144°
2026-05-05 14:24 13.82642 121.84300 29304 ft 421 kts 144°
2026-05-05 14:25 13.80275 121.86080 29689 ft 424 kts 144°
2026-05-05 14:25 13.77872 121.87890 30075 ft 427 kts 144°
2026-05-05 14:25 13.75481 121.89691 30458 ft 430 kts 144°
2026-05-05 14:25 13.73028 121.91541 30848 ft 433 kts 144°
2026-05-05 14:26 13.70577 121.93387 31256 ft 435 kts 144°
2026-05-05 14:26 13.68093 121.95258 31646 ft 437 kts 145°
2026-05-05 14:26 13.65643 121.97105 32015 ft 440 kts 145°
2026-05-05 14:26 13.63169 121.98971 32377 ft 443 kts 145°
2026-05-05 14:27 13.60613 122.00897 32754 ft 445 kts 145°
2026-05-05 14:27 13.58101 122.02788 33140 ft 448 kts 145°